Skip Page Navigation
NASA JPL Caltech
NASA Logo - Jet Propulsion Laboratory + View the NASA Portal
+ Center for Near-Earth Object Studies
JPL Home Earth Solar System Stars & Galaxies Technology
JPL Solar System Dynamics
BODIES ORBITS EPHEMERIDES TOOLS PHYSICAL DATA DISCOVERY FAQ SITE MAP
IMPORTANT: The SSD Announcement email list is now available. Major changes are coming in the near future, including possible hostname and/or URL changes. To be notified of such changes, subscribe to this email list.

Please visit this page for more details.


JPL Small-Body Database Browser
Search: [ help ]  
1115 Sabauda (1928 XC)
Classification: Main-belt Asteroid          SPK-ID: 2001115
Ephemeris | Orbit Diagram | Orbital Elements | Mission Design | Physical Parameters | Discovery Circumstances | Close-Approach Data ]

[ hide orbit diagram ]

For accurate long-term ephemerides, please instead use our Horizons system.This orbit viewer was implemented using two-body methods, and hence should not be used for determining accurate long-term trajectories (over several years or decades) or planetary encounter circumstances.


[ revert to old Java-based viewer ]

Orbital Elements at Epoch 2458600.5 (2019-Apr-27.0) TDB
Reference: JPL 34 (heliocentric ecliptic J2000)
 Element Value Uncertainty (1-sigma)   Units 
e .1725457858792272 3.9917e-08  
a 3.098896895893748 1.4875e-08 au
q 2.564195295633064 1.2405e-07 au
i 15.28756994301986 4.6116e-06 deg
node 71.65625451814843 1.84e-05 deg
peri 56.84957403767006 2.3038e-05 deg
M 167.0475840326242 1.4224e-05 deg
tp 2457675.915059401359
(2016-Oct-14.41505940)
7.69e-05 TDB
period 1992.54949147008
5.46
1.4346e-05
3.928e-08
d
yr
n .1806730530614806 1.3008e-09 deg/d
Q 3.633598496154432 1.7441e-08 au
  Orbit Determination Parameters
   # obs. used (total)      2183  
   data-arc span      33199 days (90.89 yr)  
   first obs. used      1929-01-11  
   last obs. used      2019-12-04  
   planetary ephem.      DE431  
   SB-pert. ephem.      SB431-N16  
   condition code      0  
   norm. resid. RMS      .4227  
   source      ORB  
   producer      Otto Matic  
   solution date      2019-Dec-13 20:54:13  

Additional Information
 Earth MOID = 1.61571 au 
 Jupiter MOID = 1.70953 au 
 T_jup = 3.146 
[ show covariance matrix ]

Ephemeris | Orbit Diagram | Orbital Elements | Mission Design | Physical Parameters | Discovery Circumstances | Close-Approach Data ]

Physical Parameter Table
Parameter Symbol Value Units Sigma Reference Notes
absolute magnitude H 9.7   n/a MPO350807  
diameter diameter 75.907 km 0.656 urn:nasa:pds:neowise_diameters_albedos::2.0[mainbelt] (http://adsabs.harvard.edu/abs/2012ApJ...759L...8M)  
rotation period rot_per 6.718 h n/a LCDB (Rev. 2019-January); Warner et al., 2009 Published Reference List:
[Behrend, R. (2005) Observatoire de Geneve web site, http://obswww.unige.ch/~behrend/page_cou.html]
[Warner, B.D. (2006) Minor Planet Bull. 33, 85-88.]
[Ruthroff, J.C. (2013) Minor Planet Bull. 40, 90-91.]
[Behrend, R. (2015) Observatoire de Geneve web site, http://obswww.unige.ch/~behrend/page_cou.html]
[Behrend, R. (2017) Observatoire de Geneve web site, http://obswww.unige.ch/~behrend/page_cou.html]
[Polakis, T.; Skiff, B.A. (2017) Minor Planet Bull. 44, 299-302.]
geometric albedo albedo 0.044   0.006 urn:nasa:pds:neowise_diameters_albedos::2.0[mainbelt] (http://adsabs.harvard.edu/abs/2012ApJ...759L...8M)  

1115 Sabauda (1928 XC)          Discovered 1928-Dec-13 by Volta, L. at Pino Torinese
Reference: DISCOVERY.DBLast Updated: 2003-08-29

[ show close-approach data ]
Alternate Designations
 1928 XC = A906 YF 
Ephemeris | Orbit Diagram | Orbital Elements | Mission Design | Physical Parameters | Discovery Circumstances | Close-Approach Data ]
ABOUT SSD CREDITS/AWARDS PRIVACY/COPYRIGHT GLOSSARY LINKS
FirstGov 2020-Jan-19 05:49 UT
(server date/time)  
NASA Home Page
Site Manager:   Ryan S. Park
Webmaster  Alan B. Chamberlin